Voltar ao catálogo

BREEZE-M R/B

AtivoHEO
NORAD 31864·ROCKET BODY·🇷🇺 Russia

Lançado Jul 7, 2007 de Baikonur Cosmodrome

Loading…

Próximas Passagens (próximas 24 horas)

TLE

AtualizadoSource: Space-Track

Época: Sep 10, 2026, 17:31 UTC

1 31864U 07032C   26253.72999752  .00000014  00000-0  00000-0 0  9997
2 31864  21.7870 347.4926 5762721  43.5733 323.4664  2.01213301140858

Acompanhe BREEZE-M R/B em tempo real com AllMySat

Download on the App Store